Wetbulb
45.14 45.05 44.89 44.79 44.85 44.67 44.50 44.44 44.69 44.50 43.97 43.32 42.80 42.58 42.55 42.68 42.50 42.45 42.34 42.31 42.80 43.00 43.17 43.34 43.47 43.47 43.15 42.19 41.25 40.75 40.42 39.97 39.99 41.10 41.90 40.96 39.60 38.20 37.39 37.56 37.74 37.88 37.97 38.01 37.69 37.78 37.86 37.60 38.10 38.32 38.17 37.63 36.49 35.54 34.84 34.47 34.94 35.73 36.37 36.65 36.04 35.60 35.61 36.17 36.03 35.68 35.46 35.73 36.09
44.68 44.75 44.96 45.49 45.51 45.09 44.52 44.13 44.18 44.21 43.99 43.44 43.11 42.85 42.70 42.78 42.64 42.35 42.22 42.23 42.87 43.12 43.21 43.29 43.31 43.06 42.69 42.04 41.55 40.98 40.57 40.13 40.13 41.09 41.71 40.55 39.20 38.39 38.02 38.19 38.01 38.24 38.33 38.20 38.24 38.74 38.97 38.15 38.63 38.67 38.28 37.30 36.45 35.63 35.03 35.10 35.17 35.64 35.93 35.71 35.77 35.77 36.04 36.82 35.59 35.05 35.02 35.33 35.45
44.60 44.57 44.61 44.77 44.79 44.41 43.98 43.62 43.43 43.31 43.14 43.10 42.97 42.89 42.76 42.85 42.70 42.57 42.44 42.49 42.54 42.71 42.84 43.04 43.06 42.69 42.17 41.93 41.50 41.16 40.73 40.30 40.38 40.98 41.32 40.37 38.98 38.44 38.47 38.73 38.06 38.34 38.92 39.05 39.14 39.44 39.55 38.98 39.81 40.01 39.56 38.37 36.74 36.04 35.48 34.39 35.45 35.96 35.93 35.48 35.95 36.48 37.07 37.68 35.45 35.03 35.43 35.79 35.32
44.37 44.29 44.21 44.20 44.11 43.94 43.73 43.81 43.31 43.07 43.01 43.25 42.64 42.48 42.55 42.67 42.56 42.50 42.36 42.17 41.42 41.58 42.15 42.68 42.85 42.65 42.34 42.29 41.49 40.97 40.73 41.07 40.80 41.03 41.05 40.41 39.16 38.58 38.57 38.70 38.43 38.43 38.65 38.87 38.92 39.02 39.07 39.13 40.23 40.43 39.79 38.12 37.15 36.59 36.04 35.07 35.64 36.14 36.09 35.45 36.07 36.79 37.20 37.06 35.83 36.05 36.37 35.56 34.57
44.10 44.17 44.28 44.35 44.14 44.17 44.16 44.07 43.53 43.41 43.36 43.39 42.72 42.40 42.28 42.08 41.93 41.69 41.58 41.62 41.62 41.87 42.03 41.99 42.44 42.57 42.51 42.42 41.43 40.69 40.39 40.86 41.78 41.72 41.04 40.28 39.20 38.84 38.79 38.62 38.79 38.78 38.70 38.61 38.66 38.84 38.94 38.80 39.91 39.74 38.94 38.34 38.67 37.97 36.47 34.31 35.10 35.59 35.85 36.06 36.42 36.74 36.83 36.61 36.05 35.74 35.51 35.10 34.09
44.02 44.13 44.32 44.55 44.34 44.33 44.43 44.31 43.73 43.56 43.60 43.32 42.64 42.24 42.04 42.02 41.75 41.49 41.45 41.57 41.58 41.34 41.26 41.62 42.44 42.69 42.54 41.94 41.32 40.73 40.39 40.33 41.57 41.56 40.95 40.10 39.43 38.88 38.53 38.49 38.62 38.92 38.91 38.47 38.29 38.40 38.78 39.22 39.87 39.10 37.94 37.90 37.23 35.95 34.77 34.60 36.55 36.63 36.07 36.06 35.96 36.01 36.01 35.92 35.64 35.46 35.33 35.03 34.16
44.10 44.09 44.17 44.29 44.20 44.31 44.25 44.02 43.79 43.62 43.42 43.06 42.33 41.92 41.79 41.79 41.48 41.25 41.25 41.68 41.34 41.02 41.13 42.32 42.48 42.48 42.24 41.65 41.36 40.87 40.54 40.40 40.86 40.78 40.58 40.36 39.71 39.16 38.84 38.84 38.53 38.57 38.65 38.33 38.16 38.39 38.80 39.27 40.07 39.88 39.46 39.37 37.31 35.06 33.87 34.96 37.18 37.63 36.89 35.70 35.37 35.10 34.87 34.51 34.65 35.01 35.07 34.32 33.87
44.30 44.21 44.18 44.18 44.09 44.13 43.92 43.63 43.68 43.51 43.26 43.05 42.44 41.96 41.76 41.52 41.17 41.05 41.13 41.25 40.94 40.98 41.42 42.20 41.70 41.68 41.81 41.80 41.47 41.06 40.59 40.27 40.51 40.51 40.45 40.51 39.67 39.16 38.84 38.66 38.39 38.25 38.25 38.25 38.57 38.62 38.86 39.58 40.18 39.97 39.47 38.95 37.74 35.73 34.19 34.56 36.74 37.51 37.08 35.61 34.87 34.09 33.64 33.77 34.06 34.52 34.94 34.83 34.15
44.19 44.03 44.03 43.91 43.99 44.01 43.88 43.56 43.47 43.42 43.25 43.01 42.57 42.28 42.03 41.60 41.17 41.05 41.05 41.02 41.18 41.30 41.38 41.67 41.33 41.35 41.64 41.74 41.53 41.20 40.87 40.48 40.40 40.40 40.42 40.33 39.81 39.39 39.07 38.80 38.49 38.29 38.11 38.15 38.57 38.49 38.70 39.66 39.77 39.75 39.58 39.27 38.26 36.59 35.05 34.66 36.44 36.89 36.59 35.83 35.12 34.13 33.35 33.01 33.15 33.50 34.19 35.02 34.56
43.76 43.59 43.55 43.55 43.70 43.85 43.85 43.48 43.48 43.42 43.33 43.08 42.72 42.51 42.49 42.74 41.88 41.48 41.51 41.72 41.62 41.42 41.10 41.22 41.05 41.11 41.43 41.57 41.49 41.34 41.06 40.80 40.60 40.39 40.35 40.43 40.15 39.73 39.41 39.42 38.87 38.62 38.47 38.28 38.61 38.54 38.66 39.55 39.23 38.64 38.15 38.39 37.35 36.20 35.42 35.57 36.58 36.67 36.64 37.00 35.57 34.28 33.09 32.32 32.44 33.06 33.93 34.88 34.09
43.55 43.47 43.47 43.67 43.62 43.77 43.81 43.20 43.48 43.59 43.49 43.28 42.76 42.56 42.62 43.09 42.15 41.90 41.94 41.97 41.34 40.90 40.65 40.98 40.85 40.95 41.33 41.70 41.75 41.54 41.32 41.03 40.80 40.46 40.33 40.39 40.39 40.07 39.72 39.77 39.39 39.06 38.85 38.56 38.84 39.01 39.29 39.67 38.74 37.83 37.03 36.74 36.17 35.80 35.75 35.89 36.54 36.54 36.32 36.19 35.12 34.20 33.33 32.37 32.40 32.97 33.61 33.88 33.24
43.59 43.55 43.54 43.71 43.62 43.62 43.53 43.04 43.40 43.55 43.54 43.25 42.78 42.57 42.44 42.54 42.03 41.95 41.84 41.30 40.78 40.58 40.66 40.86 40.85 41.05 41.40 41.97 41.96 41.95 41.72 41.03 40.66 40.42 40.26 40.22 40.17 40.07 39.89 39.85 39.57 39.29 39.04 38.75 39.08 39.54 39.69 39.49 38.67 37.68 36.69 35.69 36.62 36.67 36.49 36.09 36.50 36.31 35.83 35.16 34.96 34.87 34.47 33.26 32.60 32.88 33.27 33.30 33.04
43.79 43.62 43.58 43.58 43.38 43.34 43.13 42.96 43.28 43.44 43.35 43.10 42.82 42.65 42.60 42.62 42.23 42.00 41.65 40.78 40.74 40.82 40.94 40.98 41.02 41.22 41.50 42.03 42.02 41.96 41.73 41.21 40.71 40.53 40.37 40.14 40.04 39.97 39.83 39.79 39.64 39.33 39.14 38.91 39.20 39.57 39.66 39.14 38.54 37.91 37.21 36.51 37.09 37.13 36.91 36.50 36.78 36.54 35.93 35.30 35.48 35.57 35.12 33.86 32.96 32.65 32.77 33.03 33.02
43.82 43.54 43.41 43.38 43.13 43.05 43.01 42.80 43.16 43.24 43.15 42.90 42.82 42.85 42.84 42.66 42.47 42.15 41.76 41.05 41.01 40.98 41.02 40.94 41.26 41.54 41.79 41.87 41.94 41.93 41.70 41.36 40.81 40.41 40.21 40.07 40.05 39.89 39.73 39.78 39.54 39.37 39.23 39.19 39.20 39.25 39.21 39.08 38.54 38.19 37.76 37.13 37.10 36.95 36.86 36.80 37.12 36.93 36.55 36.25 36.24 35.96 35.32 34.27 33.41 33.24 33.42 33.48 32.85
43.73 43.45 43.29 43.13 42.97 42.96 43.00 42.75 43.07 43.22 43.18 42.93 43.00 43.06 43.07 42.95 42.76 42.52 42.05 41.35 41.09 41.05 41.05 40.90 41.21 41.53 41.70 41.50 41.74 41.72 41.62 41.32 40.81 40.37 40.13 39.95 39.88 39.81 39.79 39.74 39.45 39.31 39.32 39.15 39.10 39.04 38.88 38.71 38.55 38.37 38.17 37.59 37.18 36.80 36.69 36.83 37.12 37.13 37.08 36.96 36.90 36.39 35.56 34.41 33.96 34.32 34.69 34.28 32.97
43.53 43.28 43.16 42.92 42.84 42.91 42.94 42.90 43.32 43.39 43.39 43.29 43.28 43.30 43.24 43.10 42.91 42.69 42.23 41.49 41.23 41.20 41.17 40.90 41.09 41.17 41.26 41.30 41.45 41.51 41.41 41.15 40.81 40.32 39.97 39.76 39.67 39.68 39.72 39.71 39.40 39.26 39.22 38.95 38.91 38.71 38.53 38.23 38.44 38.48 38.28 37.95 37.44 37.00 36.74 36.66 36.67 36.71 36.76 36.83 36.73 36.22 35.48 34.70 34.73 35.14 35.43 35.17 33.93
43.41 43.20 43.00 42.88 42.76 42.83 42.93 43.00 43.49 43.64 43.55 43.47 43.26 43.24 43.26 43.21 42.99 42.76 42.53 41.95 41.61 41.27 41.01 40.82 41.17 41.01 40.94 41.14 41.33 41.43 41.33 41.02 40.73 40.43 40.16 39.77 39.63 39.61 39.65 39.64 39.51 39.31 39.22 38.91 38.87 38.52 38.00 37.32 37.60 37.95 38.03 37.89 37.50 37.11 36.80 36.48 36.43 36.20 35.98 35.84 35.66 35.33 35.27 35.52 35.51 35.56 35.62 35.60 34.57
43.29 43.08 43.00 42.91 42.79 42.86 42.97 43.03 43.44 43.51 43.54 43.42 43.26 43.29 43.35 43.30 42.88 42.81 42.66 42.34 41.73 41.20 40.81 40.66 41.01 40.86 40.66 40.45 40.88 41.32 41.43 40.95 40.78 40.57 40.44 39.97 39.70 39.63 39.67 39.65 39.66 39.46 39.22 38.96 38.88 38.48 37.82 36.80 36.59 36.99 37.34 37.39 37.21 37.00 36.76 36.43 36.06 35.61 35.20 34.97 34.61 34.42 34.59 35.20 35.02 35.39 35.80 35.64 34.72
43.21 43.04 43.08 42.99 42.94 43.05 43.12 43.23 43.29 43.39 43.46 43.45 43.37 43.25 43.21 42.98 42.75 42.59 42.40 42.08 41.82 41.28 40.89 40.74 40.82 40.74 40.50 40.20 40.56 41.21 41.61 41.03 40.73 40.65 40.50 40.07 39.74 39.59 39.59 39.47 39.45 39.28 39.04 38.87 38.79 38.48 37.77 36.65 36.30 36.39 36.64 36.68 36.36 36.26 36.06 35.75 35.56 35.06 34.62 34.38 34.01 33.87 33.82 33.90 33.81 34.35 34.95 35.20 34.13
43.38 43.20 43.15 43.22 43.25 43.28 43.35 43.42 43.37 43.43 43.46 43.52 43.18 42.96 42.72 42.57 42.50 42.26 42.02 41.75 41.71 41.40 41.01 40.82 40.74 40.54 40.33 40.16 40.28 40.85 41.33 41.31 40.93 40.71 40.49 40.06 39.59 39.35 39.27 39.19 39.03 38.82 38.55 38.51 38.46 38.02 37.35 36.41 36.11 36.15 36.24 36.27 35.86 35.48 35.16 34.88 34.57 34.20 33.97 34.13 33.69 33.37 33.15 33.00 32.55 32.64 32.97 33.57 32.65
43.58 43.52 43.51 43.53 43.52 43.55 43.50 43.45 43.48 43.35 43.24 43.15 42.85 42.59 42.31 42.16 42.08 42.00 41.88 41.80 41.64 41.29 40.94 40.78 40.78 40.50 40.25 39.99 39.99 40.36 40.89 41.46 41.05 40.77 40.40 40.00 39.53 39.29 39.11 39.01 38.76 38.46 38.27 38.22 38.13 37.65 36.98 36.36 36.05 36.06 36.23 36.23 35.95 35.57 35.20 34.92 34.24 33.56 33.16 33.57 32.90 32.32 31.71 31.44 31.17 31.21 31.49 32.04 31.62
43.94 43.92 43.86 43.77 43.75 43.74 43.65 43.57 43.37 43.18 42.94 42.75 42.52 42.28 41.97 41.78 41.82 41.86 41.81 41.81 41.50 41.10 40.86 40.82 40.70 40.57 40.33 40.20 40.12 40.21 40.57 41.10 40.81 40.61 40.45 40.05 39.67 39.40 39.22 38.97 38.54 38.06 37.85 37.80 37.80 37.40 36.91 36.43 36.13 36.22 36.23 36.37 35.99 35.93 35.70 35.47 34.51 33.56 32.77 32.05 31.14 30.29 29.67 29.38 29.34 29.52 29.93 30.61 30.65
44.26 44.20 44.06 43.96 43.87 43.87 43.71 43.39 43.00 42.69 42.45 42.33 42.14 41.94 41.70 41.54 41.58 41.50 41.46 41.38 41.38 41.14 40.94 40.90 40.82 40.70 40.57 40.53 40.37 40.13 40.12 40.12 39.97 39.96 39.95 39.63 39.38 39.07 38.83 38.73 38.22 37.88 37.69 37.84 37.73 37.41 36.96 36.61 36.34 36.17 36.28 36.44 36.04 35.98 35.98 35.74 35.10 34.14 33.08 31.67 30.63 29.34 28.28 27.85 27.52 27.56 27.96 28.66 29.04
44.35 44.29 44.23 44.16 43.81 43.53 43.33 42.93 42.46 42.14 42.02 41.94 41.82 41.66 41.46 41.30 41.22 41.10 40.93 40.89 41.02 40.90 40.82 41.14 41.02 40.73 40.44 40.52 40.28 39.95 39.62 39.18 39.07 38.93 38.84 38.85 38.88 38.62 38.36 38.40 38.04 37.87 37.96 38.27 38.47 38.46 38.11 37.72 36.89 36.57 36.53 36.59 36.30 36.27 36.20 36.01 35.51 34.72 33.54 32.12 30.90 29.46 28.05 26.87 26.23 26.23 26.59 27.09 27.20
44.31 44.09 44.04 43.86 43.39 43.11 42.87 42.47 42.07 41.87 41.75 41.75 41.67 41.50 41.30 41.09 40.93 40.80 40.64 40.51 40.60 40.60 40.56 40.61 40.48 40.31 40.14 40.17 39.83 39.54 39.21 38.82 38.66 38.39 38.27 38.22 38.31 38.29 38.21 38.33 38.14 38.13 38.39 39.03 40.68 41.24 41.03 40.31 38.94 37.82 37.10 36.77 36.54 36.39 36.22 35.87 35.47 34.92 34.14 33.22 32.02 30.54 28.81 26.70 25.57 25.27 25.40 25.75 25.70
44.00 43.78 43.49 43.24 42.92 42.68 42.31 42.03 41.83 41.67 41.58 41.46 41.34 41.26 41.05 40.88 40.75 40.54 40.34 40.25 40.29 40.29 40.13 40.04 40.03 40.15 40.31 39.89 39.49 39.15 38.95 38.93 38.70 38.44 38.15 38.05 37.86 37.84 38.03 38.42 38.34 38.19 38.65 40.23 42.05 42.88 43.05 42.85 41.80 40.10 38.24 36.79 36.59 36.36 36.17 35.66 35.31 34.92 34.50 33.86 33.13 32.03 30.59 28.86 26.67 25.27 24.57 24.38 24.36
43.56 43.26 42.97 42.77 42.44 42.20 41.95 41.83 41.67 41.46 41.21 40.96 40.84 40.87 40.83 40.70 40.71 40.45 40.07 39.99 39.90 39.84 39.75 39.61 39.73 40.41 40.70 39.57 39.02 38.81 38.76 38.93 38.64 38.31 38.08 37.95 37.75 37.71 37.85 38.33 38.28 38.23 39.01 41.19 42.93 43.80 44.10 44.15 43.54 42.06 39.86 37.05 36.71 36.58 36.35 35.89 34.99 34.54 34.31 34.08 33.80 33.13 32.14 30.76 28.86 27.09 25.49 23.88 23.07
43.02 42.82 42.53 42.11 41.91 41.83 41.71 41.62 41.25 40.92 40.71 40.62 40.62 40.66 40.61 40.52 40.31 40.14 39.97 39.84 39.51 39.32 39.26 39.27 39.57 40.14 40.36 39.42 38.96 38.71 38.68 38.58 38.40 38.18 37.93 37.76 37.77 37.75 37.93 38.23 38.06 38.59 39.99 42.46 43.71 44.45 44.71 44.84 44.41 43.32 41.40 38.56 37.01 36.44 36.26 35.80 35.07 34.74 34.61 34.47 34.25 33.75 33.01 32.12 30.71 29.28 27.46 25.08 23.20
42.65 42.31 41.94 41.65 41.61 41.58 41.41 41.08 40.79 40.57 40.40 40.35 40.43 40.34 40.24 40.11 39.86 39.77 39.64 39.36 39.00 38.94 38.98 39.08 39.59 39.80 39.62 39.08 38.93 38.67 38.40 38.27 38.16 37.96 37.69 37.40 37.35 37.48 37.67 37.77 37.77 39.01 41.09 43.59 44.32 44.80 45.06 45.19 44.80 44.02 42.71 40.65 38.04 36.90 36.44 35.98 35.48 35.19 35.09 35.03 34.91 34.43 33.72 32.95 31.87 30.56 28.87 26.61 24.36
42.18 41.89 41.64 41.48 41.44 41.36 41.11 40.82 40.65 40.48 40.39 40.34 40.15 39.96 39.77 39.65 39.41 39.24 39.14 38.81 38.67 38.90 39.16 39.39 39.45 39.21 38.92 38.73 38.63 38.49 38.22 38.00 37.87 37.59 37.31 36.85 36.80 36.93 37.29 37.62 37.44 38.84 41.35 44.19 44.80 45.14 45.32 45.27 45.01 44.37 43.36 41.83 38.90 37.00 36.06 35.84 35.54 35.46 35.27 35.03 34.56 34.05 33.42 32.77 31.36 30.21 29.29 28.10 26.20
41.88 41.67 41.51 41.39 41.18 41.01 40.76 40.67 40.46 40.24 40.06 40.10 39.73 39.53 39.43 39.20 39.00 38.96 38.96 38.90 38.87 39.12 39.35 38.95 38.84 38.60 38.46 38.45 38.40 38.13 37.77 37.40 37.22 37.04 36.91 36.66 37.12 36.98 36.61 36.38 36.40 38.56 41.57 44.58 45.10 45.40 45.53 45.49 45.14 44.54 43.54 42.31 39.34 37.04 35.73 35.60 35.41 35.39 35.29 34.78 33.90 33.27 32.68 31.95 31.03 30.23 29.28 28.16 27.58
41.53 41.41 41.33 41.25 40.91 40.73 40.44 40.26 40.08 39.85 39.62 39.46 39.28 39.27 39.12 38.96 38.92 39.00 39.09 39.27 39.05 38.86 38.51 38.21 38.17 37.89 37.66 37.56 37.52 37.39 37.07 36.71 36.61 36.58 36.59 36.65 36.61 35.94 35.35 35.42 35.84 38.43 41.79 44.80 45.27 45.58 45.66 45.62 45.19 44.58 43.62 42.40 39.39 36.61 34.87 35.10 35.04 34.77 34.41 33.52 32.92 32.51 32.25 32.21 31.28 30.05 29.05 28.67 28.78
41.18 41.19 41.15 40.98 40.67 40.36 40.13 39.90 39.72 39.53 39.33 39.19 39.19 39.04 38.97 38.87 38.90 38.75 38.78 38.97 38.67 38.31 37.97 37.93 37.80 37.52 37.25 37.06 36.79 36.52 36.21 36.11 36.25 36.49 36.68 36.47 35.75 35.11 34.79 35.35 36.03 38.97 42.45 44.88 45.45 45.71 45.75 45.66 45.19 44.62 43.62 42.35 38.80 35.61 33.79 34.28 34.18 33.68 32.75 31.70 31.47 31.26 31.17 31.24 31.07 30.24 29.31 28.91 29.16
40.95 40.91 40.87 40.74 40.42 40.04 39.72 39.44 39.38 39.24 39.10 39.05 38.95 38.89 38.79 38.73 38.44 38.14 38.13 38.35 38.20 38.02 37.88 37.88 37.70 37.48 37.16 36.93 36.61 36.25 36.06 36.41 35.83 35.44 35.27 34.92 34.60 34.47 34.77 35.47 36.73 39.87 43.19 45.10 45.58 45.79 45.84 45.66 45.23 44.49 43.49 41.90 37.44 34.35 32.72 32.99 32.66 31.90 31.03 30.04 29.32 29.04 29.06 29.52 29.61 29.42 29.00 28.43 28.68
40.84 40.80 40.59 40.43 40.06 39.72 39.33 39.09 38.99 38.95 38.85 38.67 38.47 38.37 38.32 38.27 37.94 37.70 37.74 38.01 37.83 37.30 36.67 36.17 35.99 35.98 35.89 35.58 35.58 35.75 35.74 35.59 34.64 34.20 34.07 34.17 34.41 34.77 35.13 35.38 37.05 40.35 43.63 45.23 45.66 45.79 45.79 45.71 45.19 44.31 42.69 40.05 35.47 33.00 32.03 31.68 31.13 30.37 29.51 28.69 27.68 26.90 26.39 26.57 26.83 26.87 26.79 26.72 26.96
40.91 40.74 40.45 39.93 39.58 39.19 38.86 38.66 38.66 38.57 38.39 38.16 37.88 37.56 37.48 37.43 37.29 37.38 37.60 38.01 37.33 36.38 35.56 35.11 34.70 34.43 34.25 34.11 34.20 34.66 35.01 34.33 33.82 33.65 33.84 34.35 34.68 34.86 34.99 35.20 37.12 40.55 43.75 45.40 45.75 45.88 45.88 45.62 44.92 43.61 41.24 37.14 33.59 32.02 31.61 31.38 30.63 29.49 28.48 28.08 26.93 25.57 24.47 24.12 24.16 24.03 24.00 24.20 24.79
40.88 40.56 40.09 39.41 38.80 38.51 38.28 38.23 38.18 38.01 37.78 37.41 37.19 36.96 36.82 36.73 36.50 36.63 37.03 37.41 36.32 35.50 34.94 34.68 34.41 34.28 34.19 34.02 33.84 33.52 33.39 33.71 33.70 33.84 34.38 35.21 35.27 35.17 35.13 35.61 37.20 40.36 43.57 45.45 45.84 45.93 45.80 45.49 44.44 42.29 38.95 34.36 32.00 31.20 31.05 30.78 29.98 28.95 28.04 27.24 25.41 23.56 22.10 21.87 21.94 22.00 22.12 22.28 23.63
40.51 40.11 39.41 38.60 38.08 37.76 37.72 37.81 37.72 37.54 37.19 36.82 36.59 36.41 36.27 36.04 35.84 36.07 36.57 37.22 35.82 34.99 34.53 34.35 34.23 34.14 34.05 33.84 33.60 33.11 32.85 33.39 34.16 34.52 34.79 35.22 35.37 35.47 35.64 36.07 37.33 40.08 43.21 45.53 45.97 46.01 45.75 45.14 43.60 40.84 37.21 32.86 31.47 31.10 30.94 30.45 29.54 28.74 27.86 26.53 23.95 21.78 20.36 19.95 20.28 20.71 21.50 22.84 26.88
39.61 39.16 38.55 37.86 37.52 37.30 37.30 37.31 37.23 36.96 36.59 36.09 35.85 35.62 35.44 35.47 35.59 35.97 36.49 36.92 35.74 35.10 34.68 34.27 33.87 33.74 33.70 33.75 33.33 32.60 32.25 32.95 34.31 34.99 35.17 34.99 35.61 36.31 36.80 36.88 37.86 40.32 43.19 45.58 45.93 45.88 45.36 44.39 42.47 39.89 36.84 33.32 31.80 31.44 31.32 30.66 29.38 28.38 27.33 25.89 23.87 21.83 20.06 19.08 19.27 19.98 21.60 24.39 31.06
38.46 38.14 37.72 37.35 37.12 37.07 37.03 36.96 36.60 36.32 35.99 35.62 35.25 34.97 34.92 35.15 35.70 36.16 36.40 36.25 35.43 34.98 34.61 34.01 33.33 33.38 33.79 34.34 33.24 32.47 32.15 32.61 33.66 34.59 35.32 35.37 36.40 37.60 38.40 37.92 38.67 40.74 43.26 45.53 45.66 45.36 44.61 43.47 41.55 39.42 36.78 33.47 32.09 31.80 31.75 30.99 29.73 28.46 27.31 26.49 25.56 23.76 21.57 19.31 18.84 19.45 20.98 23.41 30.13
37.44 37.35 37.17 36.98 36.89 36.81 36.64 36.36 35.81 35.54 35.39 35.21 34.98 35.07 35.43 35.89 35.85 35.63 35.36 35.18 34.65 34.38 34.06 33.51 32.97 33.15 33.75 34.45 33.48 32.74 32.38 32.47 32.84 33.81 34.96 36.11 37.17 38.52 39.14 38.50 39.33 40.82 42.67 44.51 44.83 44.57 43.78 42.52 40.91 39.18 36.81 33.69 32.16 32.00 32.12 31.53 30.42 29.08 27.81 27.08 26.68 25.72 24.03 21.36 20.15 20.00 20.41 20.92 23.82
MSLP
1013.87 1014.11 1014.35 1014.67 1014.99 1015.31 1015.55 1015.79 1016.03 1016.27 1016.59 1016.87 1017.11 1017.39 1017.71 1017.99 1018.31 1018.63 1018.91 1019.15 1019.35 1019.55 1019.79 1019.99 1020.23 1020.51 1020.79 1021.19 1021.51 1021.79 1022.07 1022.31 1022.51 1022.67 1022.83 1023.03 1023.23 1023.39 1023.51 1023.67 1023.79 1023.91 1024.03 1024.11 1024.23 1024.35 1024.51 1024.59 1024.75 1024.95 1025.11 1025.27 1025.43 1025.63 1025.75 1025.83 1025.95 1026.03 1026.11 1026.23 1026.39 1026.51 1026.63 1026.75 1026.91 1027.03 1027.11 1027.23 1027.35
1013.47 1013.71 1014.03 1014.35 1014.63 1014.95 1015.27 1015.59 1015.83 1016.07 1016.31 1016.51 1016.71 1016.99 1017.27 1017.55 1017.87 1018.19 1018.51 1018.79 1018.91 1019.11 1019.39 1019.71 1019.99 1020.27 1020.59 1020.95 1021.23 1021.51 1021.83 1022.11 1022.35 1022.55 1022.71 1022.91 1023.07 1023.27 1023.43 1023.59 1023.67 1023.79 1023.91 1024.03 1024.19 1024.31 1024.43 1024.55 1024.71 1024.95 1025.19 1025.35 1025.47 1025.67 1025.79 1025.87 1025.91 1025.99 1026.15 1026.31 1026.43 1026.55 1026.67 1026.79 1026.95 1027.07 1027.15 1027.27 1027.39
1013.11 1013.39 1013.71 1014.07 1014.35 1014.67 1014.99 1015.27 1015.55 1015.79 1016.03 1016.27 1016.47 1016.71 1016.95 1017.23 1017.47 1017.79 1018.07 1018.35 1018.59 1018.87 1019.19 1019.51 1019.79 1020.07 1020.35 1020.75 1021.07 1021.35 1021.63 1021.87 1022.15 1022.35 1022.59 1022.79 1022.99 1023.19 1023.35 1023.47 1023.63 1023.75 1023.83 1023.95 1024.07 1024.19 1024.31 1024.47 1024.63 1024.83 1025.07 1025.35 1025.51 1025.67 1025.83 1025.95 1025.95 1026.03 1026.19 1026.35 1026.51 1026.59 1026.71 1026.87 1027.03 1027.11 1027.23 1027.31 1027.39
1012.79 1013.07 1013.39 1013.67 1013.95 1014.23 1014.47 1014.71 1015.03 1015.35 1015.67 1015.95 1016.23 1016.51 1016.75 1016.95 1017.19 1017.47 1017.79 1018.07 1018.47 1018.79 1018.99 1019.23 1019.55 1019.87 1020.19 1020.51 1020.91 1021.23 1021.47 1021.67 1021.95 1022.19 1022.43 1022.67 1022.91 1023.07 1023.23 1023.39 1023.55 1023.71 1023.79 1023.87 1023.99 1024.07 1024.23 1024.39 1024.51 1024.75 1024.99 1025.23 1025.43 1025.63 1025.79 1025.91 1025.95 1026.07 1026.23 1026.39 1026.51 1026.59 1026.75 1026.95 1027.07 1027.15 1027.23 1027.43 1027.51
1012.47 1012.67 1012.91 1013.11 1013.39 1013.63 1013.91 1014.19 1014.55 1014.95 1015.27 1015.59 1015.99 1016.35 1016.59 1016.79 1016.99 1017.31 1017.67 1018.03 1018.31 1018.51 1018.67 1018.95 1019.27 1019.63 1019.99 1020.35 1020.67 1021.03 1021.35 1021.63 1021.83 1022.03 1022.27 1022.55 1022.79 1022.95 1023.11 1023.27 1023.43 1023.59 1023.71 1023.83 1023.95 1024.07 1024.19 1024.35 1024.51 1024.71 1024.95 1025.15 1025.35 1025.51 1025.67 1025.83 1025.95 1026.11 1026.27 1026.43 1026.51 1026.67 1026.79 1026.99 1027.11 1027.23 1027.31 1027.51 1027.63
1012.03 1012.27 1012.51 1012.79 1013.03 1013.31 1013.63 1013.95 1014.23 1014.59 1014.95 1015.31 1015.67 1016.03 1016.31 1016.55 1016.79 1017.07 1017.39 1017.71 1017.91 1018.15 1018.47 1018.79 1019.11 1019.47 1019.83 1020.23 1020.51 1020.87 1021.19 1021.51 1021.67 1021.87 1022.15 1022.43 1022.67 1022.87 1023.07 1023.23 1023.39 1023.51 1023.63 1023.79 1023.91 1023.99 1024.11 1024.27 1024.51 1024.75 1024.99 1025.15 1025.31 1025.51 1025.67 1025.79 1025.91 1026.11 1026.35 1026.55 1026.67 1026.75 1026.83 1027.03 1027.15 1027.23 1027.39 1027.55 1027.71
1011.55 1011.87 1012.19 1012.47 1012.79 1013.07 1013.39 1013.67 1014.03 1014.35 1014.67 1015.03 1015.35 1015.63 1015.87 1016.11 1016.43 1016.71 1016.95 1017.19 1017.63 1018.03 1018.39 1018.67 1018.95 1019.31 1019.67 1020.07 1020.39 1020.71 1021.03 1021.31 1021.51 1021.75 1021.99 1022.23 1022.51 1022.75 1022.95 1023.11 1023.31 1023.43 1023.55 1023.71 1023.87 1023.99 1024.11 1024.23 1024.43 1024.71 1024.99 1025.15 1025.39 1025.63 1025.79 1025.79 1025.87 1026.07 1026.39 1026.63 1026.71 1026.79 1026.95 1027.07 1027.19 1027.27 1027.43 1027.63 1027.79
1011.27 1011.51 1011.79 1012.11 1012.43 1012.79 1013.07 1013.43 1013.79 1014.19 1014.51 1014.79 1014.99 1015.19 1015.39 1015.71 1015.99 1016.31 1016.67 1017.03 1017.47 1017.79 1018.11 1018.39 1018.71 1019.03 1019.39 1019.79 1020.11 1020.47 1020.79 1021.07 1021.39 1021.63 1021.83 1022.07 1022.35 1022.63 1022.83 1023.03 1023.23 1023.39 1023.51 1023.67 1023.79 1023.95 1024.07 1024.15 1024.35 1024.63 1024.95 1025.11 1025.39 1025.63 1025.75 1025.79 1025.87 1026.07 1026.35 1026.63 1026.79 1026.87 1026.95 1027.07 1027.23 1027.31 1027.43 1027.63 1027.79
1011.23 1011.39 1011.63 1011.91 1012.23 1012.51 1012.79 1013.11 1013.47 1013.79 1014.07 1014.35 1014.59 1014.79 1015.07 1015.39 1015.71 1016.07 1016.47 1016.83 1017.11 1017.43 1017.75 1018.07 1018.39 1018.75 1019.07 1019.47 1019.79 1020.15 1020.47 1020.79 1021.07 1021.39 1021.67 1021.91 1022.23 1022.47 1022.71 1022.95 1023.11 1023.31 1023.47 1023.59 1023.67 1023.79 1023.95 1024.11 1024.27 1024.47 1024.71 1024.95 1025.23 1025.51 1025.67 1025.75 1025.91 1026.07 1026.31 1026.51 1026.75 1026.95 1027.03 1027.11 1027.23 1027.31 1027.43 1027.55 1027.79
1010.91 1011.19 1011.51 1011.79 1012.07 1012.31 1012.59 1012.95 1013.19 1013.43 1013.71 1013.99 1014.31 1014.59 1014.91 1015.23 1015.51 1015.83 1016.11 1016.43 1016.79 1017.23 1017.55 1017.83 1018.19 1018.55 1018.95 1019.31 1019.55 1019.87 1020.15 1020.47 1020.79 1021.11 1021.43 1021.67 1021.95 1022.23 1022.51 1022.71 1022.95 1023.15 1023.39 1023.51 1023.63 1023.75 1023.91 1024.03 1024.23 1024.47 1024.67 1024.87 1025.11 1025.39 1025.63 1025.71 1025.83 1026.07 1026.23 1026.43 1026.67 1026.91 1027.07 1027.23 1027.23 1027.35 1027.47 1027.55 1027.79
1010.39 1010.75 1011.11 1011.47 1011.75 1012.07 1012.43 1012.79 1013.07 1013.31 1013.55 1013.83 1014.15 1014.47 1014.79 1015.07 1015.35 1015.59 1015.83 1016.19 1016.67 1017.07 1017.31 1017.55 1017.91 1018.31 1018.67 1019.03 1019.31 1019.59 1019.91 1020.19 1020.51 1020.83 1021.15 1021.43 1021.67 1021.95 1022.15 1022.39 1022.63 1022.91 1023.11 1023.35 1023.51 1023.67 1023.79 1023.95 1024.19 1024.47 1024.67 1024.87 1025.07 1025.31 1025.51 1025.67 1025.79 1025.99 1026.23 1026.43 1026.63 1026.83 1027.07 1027.23 1027.27 1027.39 1027.47 1027.59 1027.79
1010.07 1010.39 1010.75 1011.07 1011.47 1011.83 1012.23 1012.55 1012.91 1013.15 1013.39 1013.67 1014.03 1014.31 1014.59 1014.87 1015.11 1015.39 1015.75 1016.19 1016.51 1016.75 1016.99 1017.27 1017.59 1017.95 1018.31 1018.67 1018.99 1019.31 1019.67 1019.95 1020.31 1020.67 1020.95 1021.19 1021.47 1021.71 1021.95 1022.19 1022.43 1022.67 1022.91 1023.11 1023.31 1023.47 1023.63 1023.79 1024.03 1024.31 1024.59 1024.83 1025.03 1025.23 1025.43 1025.59 1025.75 1025.95 1026.19 1026.35 1026.55 1026.75 1026.95 1027.15 1027.23 1027.35 1027.43 1027.59 1027.79
1009.83 1010.23 1010.55 1010.87 1011.27 1011.63 1011.95 1012.31 1012.59 1012.91 1013.19 1013.47 1013.79 1014.07 1014.35 1014.63 1014.95 1015.23 1015.63 1015.95 1016.19 1016.51 1016.79 1017.07 1017.39 1017.67 1018.03 1018.35 1018.71 1019.07 1019.43 1019.75 1020.07 1020.39 1020.71 1020.99 1021.23 1021.51 1021.79 1022.03 1022.27 1022.51 1022.71 1022.95 1023.07 1023.23 1023.39 1023.59 1023.79 1024.07 1024.39 1024.67 1024.91 1025.07 1025.27 1025.43 1025.63 1025.79 1026.07 1026.27 1026.47 1026.63 1026.79 1026.99 1027.15 1027.31 1027.43 1027.59 1027.79
1009.67 1010.07 1010.35 1010.67 1011.07 1011.39 1011.75 1012.07 1012.35 1012.63 1012.91 1013.23 1013.51 1013.79 1014.11 1014.43 1014.75 1015.07 1015.35 1015.67 1015.95 1016.27 1016.67 1016.95 1017.27 1017.51 1017.75 1018.07 1018.39 1018.79 1019.11 1019.47 1019.83 1020.19 1020.51 1020.79 1021.07 1021.35 1021.63 1021.83 1022.07 1022.35 1022.55 1022.79 1022.95 1023.03 1023.19 1023.39 1023.63 1023.83 1024.11 1024.43 1024.67 1024.91 1025.07 1025.23 1025.39 1025.59 1025.79 1026.03 1026.23 1026.43 1026.63 1026.83 1027.03 1027.19 1027.35 1027.55 1027.79
1009.55 1009.83 1010.15 1010.47 1010.83 1011.15 1011.47 1011.79 1012.07 1012.35 1012.67 1012.95 1013.23 1013.51 1013.87 1014.23 1014.51 1014.79 1015.07 1015.39 1015.71 1016.03 1016.35 1016.75 1017.07 1017.35 1017.59 1017.87 1018.19 1018.51 1018.87 1019.23 1019.63 1019.95 1020.31 1020.63 1020.91 1021.15 1021.39 1021.63 1021.91 1022.11 1022.35 1022.59 1022.75 1022.87 1022.99 1023.15 1023.39 1023.59 1023.83 1024.11 1024.43 1024.71 1024.95 1025.11 1025.23 1025.39 1025.59 1025.75 1025.95 1026.15 1026.39 1026.67 1026.87 1026.99 1027.15 1027.39 1027.63
1009.35 1009.67 1009.95 1010.27 1010.59 1010.83 1011.15 1011.47 1011.71 1012.03 1012.35 1012.63 1012.95 1013.27 1013.63 1013.95 1014.23 1014.55 1014.87 1015.23 1015.55 1015.87 1016.15 1016.47 1016.79 1017.11 1017.51 1017.79 1018.07 1018.35 1018.71 1019.07 1019.39 1019.75 1020.07 1020.39 1020.67 1020.95 1021.23 1021.43 1021.71 1021.95 1022.11 1022.35 1022.55 1022.75 1022.87 1022.99 1023.15 1023.35 1023.63 1023.91 1024.19 1024.51 1024.79 1024.99 1025.15 1025.31 1025.47 1025.67 1025.79 1026.03 1026.27 1026.47 1026.67 1026.79 1026.95 1027.11 1027.39
1009.07 1009.39 1009.67 1009.99 1010.23 1010.51 1010.79 1011.07 1011.39 1011.67 1012.03 1012.35 1012.67 1012.95 1013.27 1013.59 1013.95 1014.27 1014.59 1014.91 1015.27 1015.67 1015.95 1016.23 1016.51 1016.87 1017.27 1017.67 1017.99 1018.27 1018.59 1018.91 1019.23 1019.51 1019.79 1020.07 1020.35 1020.67 1020.91 1021.15 1021.39 1021.67 1021.87 1022.07 1022.35 1022.55 1022.79 1022.95 1023.07 1023.23 1023.47 1023.75 1023.99 1024.27 1024.59 1024.83 1025.07 1025.23 1025.43 1025.63 1025.79 1025.95 1026.15 1026.35 1026.51 1026.67 1026.79 1026.99 1027.19
1008.79 1009.07 1009.39 1009.67 1009.91 1010.15 1010.39 1010.71 1010.99 1011.31 1011.67 1011.99 1012.35 1012.63 1012.95 1013.23 1013.59 1013.95 1014.23 1014.55 1014.91 1015.23 1015.63 1015.99 1016.31 1016.63 1016.95 1017.39 1017.75 1018.07 1018.35 1018.67 1018.95 1019.19 1019.43 1019.71 1019.99 1020.27 1020.55 1020.79 1021.07 1021.35 1021.59 1021.83 1022.07 1022.31 1022.55 1022.79 1023.03 1023.23 1023.43 1023.67 1023.91 1024.15 1024.43 1024.71 1024.95 1025.19 1025.39 1025.59 1025.79 1025.95 1026.07 1026.27 1026.39 1026.51 1026.67 1026.87 1027.07
1008.43 1008.75 1009.07 1009.31 1009.55 1009.79 1010.07 1010.39 1010.67 1010.95 1011.27 1011.59 1011.95 1012.31 1012.63 1012.95 1013.23 1013.59 1013.95 1014.35 1014.59 1014.87 1015.23 1015.67 1016.07 1016.35 1016.67 1017.03 1017.39 1017.71 1018.03 1018.35 1018.59 1018.87 1019.15 1019.47 1019.79 1020.03 1020.27 1020.55 1020.87 1021.15 1021.43 1021.67 1021.87 1022.11 1022.35 1022.67 1022.87 1023.11 1023.39 1023.63 1023.87 1024.15 1024.39 1024.67 1024.91 1025.11 1025.35 1025.55 1025.75 1025.95 1026.07 1026.23 1026.35 1026.47 1026.59 1026.75 1026.95
1008.07 1008.39 1008.67 1008.91 1009.19 1009.51 1009.79 1010.11 1010.39 1010.67 1010.95 1011.31 1011.67 1012.03 1012.35 1012.63 1012.95 1013.27 1013.67 1014.03 1014.35 1014.67 1014.99 1015.39 1015.75 1016.11 1016.47 1016.79 1017.11 1017.39 1017.67 1017.99 1018.31 1018.59 1018.95 1019.27 1019.63 1019.87 1020.11 1020.39 1020.71 1020.99 1021.27 1021.51 1021.75 1022.03 1022.27 1022.55 1022.79 1022.99 1023.23 1023.51 1023.83 1024.11 1024.39 1024.67 1024.87 1025.07 1025.31 1025.51 1025.67 1025.87 1026.03 1026.19 1026.35 1026.47 1026.59 1026.71 1026.95
1007.79 1008.03 1008.23 1008.51 1008.91 1009.23 1009.55 1009.83 1010.15 1010.47 1010.79 1011.11 1011.47 1011.79 1012.07 1012.35 1012.71 1012.99 1013.27 1013.59 1014.03 1014.47 1014.83 1015.15 1015.47 1015.79 1016.19 1016.55 1016.91 1017.15 1017.39 1017.71 1018.11 1018.43 1018.71 1019.07 1019.39 1019.67 1019.95 1020.23 1020.51 1020.87 1021.19 1021.43 1021.67 1021.95 1022.23 1022.47 1022.71 1022.95 1023.15 1023.43 1023.71 1023.99 1024.27 1024.55 1024.83 1025.07 1025.27 1025.51 1025.67 1025.83 1025.99 1026.19 1026.31 1026.47 1026.59 1026.75 1026.91
1007.51 1007.75 1008.03 1008.35 1008.67 1008.99 1009.31 1009.67 1009.95 1010.31 1010.63 1010.91 1011.23 1011.51 1011.83 1012.19 1012.47 1012.75 1013.07 1013.43 1013.83 1014.23 1014.63 1014.95 1015.19 1015.47 1015.83 1016.19 1016.51 1016.83 1017.19 1017.51 1017.91 1018.23 1018.55 1018.87 1019.23 1019.51 1019.79 1020.07 1020.39 1020.75 1021.07 1021.31 1021.55 1021.79 1022.07 1022.35 1022.59 1022.79 1023.07 1023.35 1023.59 1023.83 1024.11 1024.39 1024.71 1024.99 1025.27 1025.51 1025.71 1025.91 1026.07 1026.23 1026.35 1026.47 1026.59 1026.71 1026.87
1007.23 1007.59 1007.95 1008.23 1008.51 1008.83 1009.19 1009.55 1009.87 1010.15 1010.47 1010.79 1011.07 1011.39 1011.71 1012.03 1012.31 1012.63 1012.99 1013.39 1013.75 1014.07 1014.35 1014.67 1014.99 1015.27 1015.51 1015.87 1016.23 1016.59 1016.95 1017.39 1017.79 1018.11 1018.43 1018.75 1019.07 1019.43 1019.75 1019.99 1020.31 1020.59 1020.87 1021.07 1021.35 1021.63 1021.95 1022.23 1022.47 1022.67 1022.91 1023.19 1023.51 1023.75 1023.99 1024.27 1024.55 1024.87 1025.23 1025.51 1025.75 1025.99 1026.19 1026.31 1026.43 1026.51 1026.63 1026.71 1026.83
1007.07 1007.47 1007.79 1008.15 1008.47 1008.79 1009.11 1009.43 1009.71 1010.03 1010.35 1010.63 1010.95 1011.23 1011.55 1011.87 1012.23 1012.55 1012.95 1013.27 1013.59 1013.91 1014.19 1014.51 1014.79 1015.11 1015.39 1015.75 1016.07 1016.39 1016.79 1017.15 1017.59 1017.99 1018.35 1018.67 1018.95 1019.31 1019.67 1019.95 1020.19 1020.35 1020.59 1020.79 1021.03 1021.31 1021.59 1021.95 1022.23 1022.55 1022.79 1023.03 1023.31 1023.59 1023.87 1024.15 1024.43 1024.71 1025.07 1025.39 1025.67 1025.95 1026.23 1026.35 1026.51 1026.59 1026.67 1026.79 1026.91
1006.95 1007.31 1007.67 1007.99 1008.31 1008.67 1008.95 1009.27 1009.59 1009.87 1010.11 1010.35 1010.67 1011.03 1011.39 1011.71 1012.07 1012.43 1012.79 1013.11 1013.39 1013.71 1014.03 1014.35 1014.67 1015.03 1015.39 1015.75 1016.07 1016.31 1016.59 1016.91 1017.27 1017.71 1018.11 1018.51 1018.83 1019.11 1019.43 1019.71 1019.95 1020.19 1020.35 1020.59 1020.75 1020.95 1021.19 1021.47 1021.79 1022.19 1022.51 1022.83 1023.15 1023.47 1023.75 1023.99 1024.27 1024.55 1024.83 1025.15 1025.51 1025.79 1026.15 1026.43 1026.59 1026.67 1026.71 1026.83 1026.95
1006.87 1007.23 1007.51 1007.79 1008.11 1008.47 1008.79 1009.07 1009.35 1009.63 1009.91 1010.23 1010.55 1010.91 1011.23 1011.55 1011.95 1012.27 1012.59 1012.95 1013.23 1013.55 1013.91 1014.23 1014.55 1014.95 1015.31 1015.63 1015.95 1016.27 1016.51 1016.79 1017.07 1017.39 1017.79 1018.23 1018.59 1018.95 1019.23 1019.51 1019.71 1019.95 1020.19 1020.35 1020.51 1020.75 1020.95 1021.19 1021.47 1021.79 1022.23 1022.63 1022.99 1023.35 1023.67 1023.95 1024.19 1024.39 1024.67 1024.95 1025.23 1025.59 1025.95 1026.31 1026.51 1026.67 1026.79 1026.87 1026.99
1006.79 1007.07 1007.39 1007.63 1007.95 1008.27 1008.55 1008.83 1009.15 1009.51 1009.79 1010.15 1010.47 1010.79 1011.07 1011.39 1011.75 1012.11 1012.47 1012.79 1013.11 1013.43 1013.79 1014.15 1014.51 1014.79 1015.15 1015.47 1015.83 1016.19 1016.43 1016.67 1016.95 1017.27 1017.55 1017.87 1018.23 1018.63 1018.95 1019.19 1019.43 1019.67 1019.91 1020.07 1020.23 1020.47 1020.71 1020.95 1021.27 1021.59 1021.95 1022.35 1022.75 1023.07 1023.47 1023.79 1024.11 1024.35 1024.63 1024.87 1025.11 1025.39 1025.67 1025.95 1026.27 1026.51 1026.75 1026.95 1027.03
1006.67 1006.95 1007.23 1007.59 1007.87 1008.15 1008.43 1008.79 1009.11 1009.47 1009.75 1010.03 1010.31 1010.59 1010.95 1011.31 1011.67 1011.99 1012.35 1012.67 1013.03 1013.39 1013.79 1014.11 1014.39 1014.67 1015.03 1015.39 1015.67 1015.91 1016.15 1016.47 1016.79 1017.15 1017.47 1017.71 1017.95 1018.23 1018.55 1018.83 1019.11 1019.35 1019.51 1019.71 1019.95 1020.23 1020.51 1020.75 1021.07 1021.39 1021.75 1022.07 1022.47 1022.79 1023.15 1023.51 1023.91 1024.23 1024.51 1024.75 1024.95 1025.19 1025.43 1025.67 1025.95 1026.27 1026.59 1026.83 1027.03
1006.59 1006.91 1007.23 1007.51 1007.79 1008.07 1008.39 1008.75 1009.03 1009.27 1009.55 1009.91 1010.19 1010.51 1010.87 1011.23 1011.59 1011.91 1012.23 1012.63 1012.99 1013.35 1013.67 1013.95 1014.23 1014.59 1014.95 1015.27 1015.51 1015.79 1016.07 1016.35 1016.63 1016.95 1017.35 1017.67 1017.87 1018.07 1018.31 1018.55 1018.83 1019.07 1019.27 1019.51 1019.79 1020.07 1020.35 1020.59 1020.87 1021.23 1021.51 1021.87 1022.27 1022.63 1022.95 1023.31 1023.67 1024.03 1024.31 1024.55 1024.79 1024.99 1025.23 1025.51 1025.79 1026.07 1026.35 1026.63 1026.91
1006.59 1006.87 1007.19 1007.47 1007.75 1008.07 1008.35 1008.63 1008.91 1009.19 1009.51 1009.87 1010.19 1010.51 1010.87 1011.23 1011.51 1011.83 1012.15 1012.51 1012.79 1013.07 1013.39 1013.67 1014.07 1014.43 1014.79 1015.07 1015.39 1015.71 1016.03 1016.27 1016.55 1016.83 1017.15 1017.51 1017.79 1018.03 1018.23 1018.43 1018.67 1018.91 1019.11 1019.31 1019.55 1019.83 1020.11 1020.39 1020.67 1020.99 1021.39 1021.75 1022.11 1022.47 1022.79 1023.11 1023.47 1023.79 1024.07 1024.35 1024.59 1024.83 1025.07 1025.31 1025.59 1025.91 1026.19 1026.47 1026.75
1006.63 1006.91 1007.15 1007.43 1007.71 1008.03 1008.27 1008.51 1008.83 1009.19 1009.51 1009.87 1010.19 1010.51 1010.83 1011.11 1011.43 1011.71 1011.95 1012.23 1012.55 1012.87 1013.19 1013.55 1013.95 1014.27 1014.59 1014.91 1015.27 1015.59 1015.91 1016.23 1016.51 1016.75 1016.99 1017.23 1017.51 1017.79 1018.07 1018.35 1018.63 1018.79 1018.95 1019.11 1019.39 1019.67 1019.95 1020.23 1020.51 1020.87 1021.23 1021.59 1021.99 1022.35 1022.67 1022.95 1023.23 1023.55 1023.83 1024.11 1024.39 1024.67 1024.91 1025.19 1025.47 1025.75 1025.99 1026.23 1026.51
1006.67 1006.91 1007.19 1007.47 1007.75 1007.99 1008.27 1008.59 1008.91 1009.23 1009.51 1009.87 1010.15 1010.43 1010.75 1010.99 1011.27 1011.51 1011.79 1012.11 1012.51 1012.95 1013.27 1013.63 1013.91 1014.23 1014.59 1014.95 1015.23 1015.51 1015.79 1016.11 1016.35 1016.63 1016.87 1017.07 1017.39 1017.71 1018.03 1018.35 1018.55 1018.75 1018.87 1018.95 1019.23 1019.51 1019.79 1020.07 1020.39 1020.71 1021.07 1021.43 1021.87 1022.23 1022.55 1022.79 1023.11 1023.39 1023.67 1023.95 1024.23 1024.47 1024.71 1024.99 1025.31 1025.55 1025.79 1026.03 1026.23
1006.67 1006.95 1007.23 1007.51 1007.75 1008.03 1008.35 1008.67 1008.95 1009.23 1009.51 1009.79 1010.07 1010.39 1010.67 1010.95 1011.27 1011.63 1011.95 1012.23 1012.55 1012.87 1013.19 1013.47 1013.79 1014.11 1014.51 1014.83 1015.15 1015.47 1015.79 1016.03 1016.23 1016.51 1016.75 1017.03 1017.35 1017.67 1018.03 1018.35 1018.51 1018.67 1018.79 1018.87 1019.11 1019.39 1019.67 1019.95 1020.31 1020.63 1020.95 1021.35 1021.79 1022.23 1022.55 1022.79 1023.07 1023.39 1023.67 1023.95 1024.15 1024.35 1024.59 1024.79 1025.07 1025.39 1025.63 1025.79 1025.99
1006.71 1006.99 1007.23 1007.51 1007.79 1008.11 1008.39 1008.67 1008.95 1009.23 1009.51 1009.83 1010.11 1010.39 1010.67 1010.99 1011.39 1011.71 1011.99 1012.23 1012.51 1012.75 1012.99 1013.27 1013.55 1013.87 1014.23 1014.55 1014.95 1015.31 1015.67 1015.95 1016.23 1016.51 1016.79 1017.07 1017.39 1017.67 1017.99 1018.23 1018.47 1018.55 1018.67 1018.79 1019.03 1019.31 1019.55 1019.87 1020.23 1020.51 1020.91 1021.35 1021.79 1022.23 1022.55 1022.79 1023.11 1023.43 1023.71 1023.99 1024.23 1024.43 1024.59 1024.79 1024.95 1025.19 1025.39 1025.67 1025.83
1006.75 1007.03 1007.31 1007.59 1007.87 1008.19 1008.47 1008.75 1008.99 1009.31 1009.59 1009.87 1010.15 1010.43 1010.71 1010.99 1011.27 1011.55 1011.87 1012.15 1012.47 1012.79 1013.11 1013.43 1013.71 1013.99 1014.31 1014.67 1014.95 1015.23 1015.59 1015.95 1016.27 1016.59 1016.83 1017.11 1017.39 1017.67 1017.95 1018.19 1018.35 1018.47 1018.59 1018.71 1018.95 1019.23 1019.51 1019.79 1020.11 1020.47 1020.87 1021.35 1021.87 1022.23 1022.55 1022.83 1023.11 1023.43 1023.75 1023.99 1024.27 1024.51 1024.67 1024.83 1024.99 1025.15 1025.35 1025.51 1025.71
1006.75 1007.03 1007.39 1007.67 1007.99 1008.27 1008.55 1008.79 1009.07 1009.35 1009.63 1009.91 1010.23 1010.51 1010.79 1010.99 1011.27 1011.51 1011.79 1012.11 1012.51 1012.91 1013.23 1013.59 1013.95 1014.23 1014.55 1014.87 1015.19 1015.39 1015.63 1015.95 1016.23 1016.55 1016.83 1017.07 1017.31 1017.59 1017.87 1018.15 1018.35 1018.47 1018.51 1018.67 1018.91 1019.15 1019.39 1019.71 1020.03 1020.39 1020.87 1021.39 1021.83 1022.23 1022.51 1022.79 1023.11 1023.39 1023.71 1023.99 1024.31 1024.55 1024.75 1024.95 1025.07 1025.23 1025.43 1025.55 1025.67
1006.75 1007.07 1007.39 1007.79 1008.11 1008.39 1008.67 1008.91 1009.15 1009.39 1009.67 1009.95 1010.23 1010.47 1010.79 1011.07 1011.39 1011.67 1011.95 1012.19 1012.55 1012.95 1013.31 1013.63 1013.95 1014.23 1014.51 1014.79 1015.15 1015.47 1015.71 1015.95 1016.23 1016.51 1016.79 1017.03 1017.27 1017.51 1017.79 1018.07 1018.31 1018.39 1018.47 1018.59 1018.79 1019.07 1019.35 1019.67 1019.95 1020.35 1020.87 1021.39 1021.83 1022.23 1022.51 1022.83 1023.15 1023.47 1023.79 1024.07 1024.35 1024.63 1024.79 1024.99 1025.11 1025.31 1025.51 1025.63 1025.71
1006.87 1007.15 1007.51 1007.91 1008.23 1008.51 1008.79 1009.03 1009.23 1009.51 1009.79 1010.03 1010.31 1010.55 1010.83 1011.15 1011.51 1011.79 1011.99 1012.19 1012.51 1012.91 1013.27 1013.63 1013.91 1014.19 1014.47 1014.75 1015.07 1015.47 1015.79 1016.07 1016.23 1016.47 1016.75 1017.03 1017.23 1017.43 1017.67 1017.95 1018.23 1018.35 1018.39 1018.51 1018.71 1018.95 1019.23 1019.55 1019.95 1020.35 1020.79 1021.27 1021.71 1022.07 1022.43 1022.79 1023.15 1023.51 1023.79 1024.11 1024.43 1024.71 1024.95 1025.07 1025.23 1025.39 1025.55 1025.67 1025.67
1007.03 1007.35 1007.67 1007.99 1008.35 1008.67 1008.91 1009.15 1009.39 1009.63 1009.91 1010.23 1010.51 1010.79 1011.03 1011.27 1011.55 1011.79 1012.03 1012.19 1012.43 1012.79 1013.23 1013.59 1013.95 1014.23 1014.51 1014.83 1015.23 1015.59 1015.95 1016.15 1016.35 1016.51 1016.75 1016.99 1017.23 1017.39 1017.63 1017.83 1018.07 1018.23 1018.35 1018.47 1018.67 1018.95 1019.23 1019.55 1019.95 1020.35 1020.79 1021.19 1021.55 1021.91 1022.27 1022.67 1023.07 1023.43 1023.79 1024.15 1024.51 1024.79 1025.07 1025.23 1025.35 1025.47 1025.55 1025.67 1025.55
1007.23 1007.51 1007.79 1008.11 1008.39 1008.71 1008.99 1009.27 1009.55 1009.79 1010.07 1010.31 1010.63 1010.91 1011.15 1011.39 1011.63 1011.87 1012.15 1012.39 1012.67 1012.95 1013.23 1013.67 1013.99 1014.35 1014.67 1014.95 1015.27 1015.63 1015.95 1016.27 1016.47 1016.63 1016.79 1016.99 1017.23 1017.39 1017.59 1017.79 1017.99 1018.11 1018.23 1018.39 1018.67 1018.95 1019.23 1019.63 1019.99 1020.39 1020.79 1021.19 1021.51 1021.79 1022.11 1022.51 1022.95 1023.39 1023.79 1024.11 1024.43 1024.79 1025.07 1025.27 1025.39 1025.51 1025.59 1025.67 1025.63
1007.47 1007.71 1007.95 1008.23 1008.51 1008.75 1009.07 1009.39 1009.67 1009.95 1010.19 1010.39 1010.67 1010.95 1011.23 1011.43 1011.71 1012.03 1012.35 1012.67 1012.95 1013.19 1013.51 1013.83 1014.19 1014.43 1014.71 1014.99 1015.31 1015.63 1015.95 1016.31 1016.55 1016.75 1016.87 1017.07 1017.23 1017.43 1017.59 1017.79 1017.95 1018.11 1018.27 1018.47 1018.67 1018.99 1019.35 1019.71 1020.07 1020.39 1020.79 1021.15 1021.43 1021.67 1021.99 1022.35 1022.83 1023.31 1023.71 1024.03 1024.27 1024.59 1024.91 1025.23 1025.39 1025.51 1025.55 1025.67 1025.71
Wind_Speed
14 13 12 12 12 11 10 9 9 9 10 10 11 11 11 11 11 10 9 9 9 9 9 9 9 9 10 11 13 13 12 10 10 10 10 10 9 8 8 8 8 8 8 8 7 7 6 6 5 4 4 3 4 3 3 2 3 4 4 5 4 4 5 7 6 5 5 4 3
16 15 14 13 12 11 9 8 8 9 9 9 10 11 11 11 11 11 10 10 9 9 8 8 9 9 11 13 13 13 12 11 11 11 10 10 9 9 9 8 8 8 9 9 8 7 6 7 6 5 4 3 4 3 3 2 3 4 5 5 4 4 4 6 5 5 5 4 3
16 15 14 14 13 12 10 9 9 10 11 10 9 10 10 10 10 10 10 11 10 9 8 8 9 10 12 13 12 12 12 12 12 11 11 10 9 9 9 8 8 8 9 9 8 7 7 7 6 6 5 4 4 4 4 2 3 4 5 5 4 4 4 4 4 4 4 4 4
17 16 16 16 17 16 14 11 12 13 13 11 10 9 10 9 9 9 9 10 9 8 8 9 10 10 11 12 12 12 11 12 12 12 11 10 10 10 10 9 9 9 9 8 8 8 8 7 6 5 5 6 6 5 4 3 3 4 4 3 3 3 4 4 4 4 4 4 4
17 17 17 17 19 18 16 14 14 14 13 11 10 10 9 8 7 7 8 9 9 10 10 10 10 10 11 12 13 13 12 12 12 12 11 10 10 10 10 10 10 9 9 8 8 9 8 8 6 5 5 6 5 5 5 5 5 4 3 3 3 3 4 4 4 3 4 4 3
18 18 17 17 19 18 16 14 16 15 13 11 12 12 11 9 9 9 10 11 11 11 12 12 11 11 11 12 13 13 13 12 12 11 11 11 10 10 10 10 10 9 9 8 9 9 9 8 5 4 4 4 4 4 5 6 6 5 4 3 3 3 3 4 4 4 4 5 4
19 19 18 18 19 17 15 14 15 14 13 12 14 15 15 13 13 13 14 13 11 11 11 11 12 12 12 13 13 13 13 12 11 11 11 11 11 10 11 10 10 9 9 9 9 8 8 7 6 5 5 5 4 4 5 6 6 6 6 5 3 3 3 4 4 4 5 7 6
19 19 19 18 18 18 17 16 15 14 13 12 15 17 18 17 16 16 15 13 12 11 11 11 13 14 14 14 14 14 14 13 12 12 11 11 11 11 11 10 10 10 9 9 9 9 8 7 6 6 6 5 4 4 5 6 7 7 7 6 4 3 3 3 4 4 6 8 8
17 17 17 16 17 18 18 17 17 16 16 15 17 18 19 18 18 17 16 13 13 12 12 12 14 15 15 15 15 15 14 14 13 13 12 12 12 12 11 10 10 10 9 9 9 9 9 6 6 6 6 5 5 6 6 7 8 8 8 7 5 4 3 3 4 5 6 8 8
17 17 16 16 17 17 17 17 17 18 18 18 18 19 19 18 18 17 15 13 13 13 13 13 14 15 16 16 16 15 14 14 14 13 13 13 13 13 13 11 12 11 10 9 9 9 9 7 6 6 6 6 7 7 8 8 9 9 8 6 6 6 5 4 5 6 6 7 8
19 18 17 17 18 18 17 16 16 17 17 17 18 18 18 18 17 16 14 12 13 14 15 14 15 16 16 16 16 15 14 13 13 13 14 13 14 14 14 13 13 12 12 10 9 9 8 7 7 8 7 6 7 8 9 8 9 9 8 6 7 8 7 6 5 6 6 7 8
20 19 18 18 18 18 17 17 16 16 16 17 17 17 17 17 17 16 15 13 15 16 16 15 17 17 17 15 15 15 14 14 14 14 14 14 14 14 14 13 13 13 13 12 10 9 8 8 9 10 9 8 8 8 9 9 10 10 9 8 8 9 9 8 7 6 6 7 8
20 19 18 18 18 18 17 17 15 15 16 16 17 16 16 16 16 16 16 16 16 15 15 15 16 17 16 15 15 15 15 14 14 14 14 14 14 14 14 13 13 13 12 12 11 10 9 9 11 11 12 11 9 9 9 10 10 10 10 10 10 10 10 10 9 7 7 7 8
19 19 19 18 18 18 17 17 15 14 15 17 16 16 16 15 16 16 16 16 16 15 14 14 15 15 15 16 15 16 16 15 15 15 15 14 14 14 14 13 13 13 12 11 11 11 11 11 12 13 13 13 11 10 10 11 11 11 12 12 12 11 11 10 10 9 9 9 9
19 19 19 18 19 18 17 17 14 14 15 17 16 16 15 14 15 15 16 16 16 15 14 14 14 14 15 15 16 16 16 16 16 16 15 15 14 14 14 13 13 13 12 11 11 11 12 12 13 13 13 13 13 12 11 11 10 11 11 12 12 12 11 11 11 10 10 10 10
19 19 19 19 19 18 17 17 14 14 15 16 16 16 15 14 15 15 16 16 15 14 14 15 15 14 14 14 15 16 16 16 16 16 16 15 15 15 15 14 14 14 13 13 12 11 11 11 12 13 13 13 13 13 12 11 10 10 10 10 11 11 11 11 11 11 11 11 11
20 20 20 20 20 20 19 17 15 15 16 17 17 16 16 15 14 15 16 17 15 14 15 16 15 14 14 14 14 15 15 15 15 16 16 16 16 16 16 15 15 15 14 14 13 12 11 10 10 11 12 13 13 12 12 11 10 9 9 9 9 10 10 11 11 11 10 11 11
20 20 20 21 21 21 21 19 17 17 17 18 18 17 16 15 15 16 16 17 16 17 17 17 16 15 15 15 15 14 14 15 15 16 16 16 16 16 16 16 15 15 14 14 14 13 12 11 10 10 10 11 11 11 11 11 10 9 9 9 9 9 9 10 10 10 10 10 10
21 21 21 22 23 22 22 21 19 18 18 19 18 17 17 17 17 17 17 17 17 18 19 18 17 16 16 17 16 15 15 15 16 17 16 16 15 15 16 15 15 14 14 13 13 13 12 11 11 10 10 10 10 10 10 10 9 9 9 9 9 9 9 9 9 9 9 10 10
22 22 23 23 23 23 22 21 19 18 18 17 18 18 18 17 18 18 18 18 18 18 18 19 17 17 17 17 17 17 16 14 16 17 16 15 15 15 15 15 14 14 13 13 12 12 11 11 11 11 11 11 10 10 10 9 9 8 8 8 8 9 9 9 8 8 8 9 9
22 23 23 23 23 22 21 20 19 18 17 17 18 18 18 17 18 18 19 19 18 18 18 19 18 18 18 18 18 18 16 14 15 16 15 15 15 14 14 14 14 13 12 12 11 11 11 11 11 11 11 11 11 11 11 10 9 9 8 7 7 8 8 8 8 8 8 8 9
22 22 22 22 22 21 20 19 18 17 16 17 17 18 17 17 18 18 18 18 18 18 18 19 19 19 19 19 19 18 16 14 15 15 14 14 14 13 13 13 13 13 12 12 12 12 12 11 11 11 11 11 11 11 11 11 10 9 8 8 7 7 7 7 7 7 8 8 9
21 20 20 20 20 20 19 18 17 16 16 16 17 17 17 17 17 17 16 16 17 18 18 18 18 18 19 19 19 18 16 14 14 14 13 13 13 12 12 12 13 13 13 12 12 12 12 11 11 11 11 11 11 12 11 11 11 10 9 9 8 7 7 6 6 6 7 7 8
20 19 18 16 18 18 18 17 16 16 16 16 17 17 17 17 16 16 16 16 17 18 17 16 16 16 17 17 17 17 16 15 15 14 13 12 12 12 12 12 12 13 13 11 12 13 13 12 11 11 11 11 11 11 11 11 11 11 10 10 9 8 7 6 5 5 6 6 6
19 18 17 16 17 17 17 17 17 17 17 17 17 17 17 17 16 16 16 17 17 17 17 15 15 15 15 15 15 15 15 16 16 16 14 14 13 13 12 11 11 11 11 11 16 18 18 15 13 11 11 10 10 10 10 10 11 11 11 11 11 10 8 6 5 5 5 6 6
18 18 17 17 17 17 17 17 17 17 17 16 16 17 17 16 16 16 17 17 17 17 16 15 14 14 14 14 14 14 14 14 15 16 16 15 15 14 13 11 11 10 10 12 19 22 22 20 17 15 12 10 10 10 10 9 10 10 11 11 11 11 10 9 7 5 5 5 5
17 17 17 16 17 17 18 17 17 16 16 16 16 17 17 16 15 16 17 17 16 16 15 13 13 14 14 12 14 14 14 13 14 15 16 16 16 16 15 12 11 10 11 16 21 24 24 23 21 19 15 11 11 11 10 10 10 10 10 11 11 11 11 11 10 8 6 5 4
16 16 16 16 17 17 17 16 16 16 16 16 17 17 16 16 16 16 16 16 15 14 13 11 11 11 10 10 13 15 15 14 14 14 14 14 16 16 15 13 11 11 14 20 23 24 25 24 23 21 18 14 11 11 11 11 10 10 10 10 10 11 11 11 10 9 8 7 5
16 16 16 16 17 17 17 16 16 16 16 16 16 16 16 16 16 16 16 15 15 14 12 10 9 8 9 10 12 13 14 13 13 13 13 13 14 14 14 13 12 13 17 23 24 25 25 24 24 23 21 17 12 9 9 10 10 9 9 9 9 10 10 10 9 9 9 8 7
15 15 16 17 17 17 16 16 16 16 15 14 15 15 15 15 15 15 16 16 15 14 12 10 10 10 11 12 12 12 12 12 11 12 13 14 14 14 13 12 12 13 18 24 25 25 25 24 24 23 22 19 13 10 8 9 9 9 9 8 9 10 10 10 10 10 9 8 8
14 15 16 16 16 16 16 16 15 15 14 13 14 15 15 15 16 16 16 15 14 12 11 11 12 13 13 12 12 12 12 11 11 12 13 14 15 14 13 12 11 13 17 24 25 25 25 24 24 23 23 21 14 10 8 9 9 9 9 9 10 10 11 10 10 11 10 10 9
14 15 15 16 16 15 15 14 14 14 14 14 15 15 15 15 15 14 14 14 13 12 12 12 13 13 13 12 12 12 12 12 12 12 13 14 14 12 11 11 11 13 17 24 25 25 25 24 24 23 23 21 14 11 9 10 9 9 9 10 11 11 11 10 10 11 11 11 11
14 14 15 15 15 14 14 14 14 14 14 15 15 15 15 14 13 12 12 12 12 13 14 14 15 14 14 14 13 12 12 12 12 12 13 12 12 12 11 10 10 12 17 24 24 24 24 24 23 23 22 21 14 10 9 9 8 8 8 8 9 10 11 11 11 11 11 11 10
14 14 14 14 14 14 13 13 13 14 14 14 14 14 14 14 13 12 11 10 10 11 11 12 13 13 13 13 13 13 13 11 11 11 11 11 11 11 10 9 8 12 18 23 23 24 23 23 23 23 22 19 13 10 9 9 8 7 8 8 8 9 9 10 10 11 11 10 9
14 14 14 14 13 13 13 13 13 14 14 14 14 13 13 13 13 12 11 10 9 9 8 8 9 9 9 9 10 11 12 12 11 11 11 11 12 12 11 9 8 13 19 22 23 23 23 23 23 23 21 17 11 9 9 10 9 9 9 9 9 8 8 8 8 9 9 9 9
14 14 14 13 13 13 13 13 13 14 14 14 14 13 13 12 11 11 11 11 10 10 9 9 9 8 8 8 8 9 11 12 12 12 11 12 12 12 12 10 10 14 19 22 22 23 23 23 23 22 19 14 9 8 8 9 8 9 9 10 9 8 8 7 7 7 7 7 8
13 14 14 13 13 12 13 13 13 14 14 13 13 13 13 12 10 10 10 11 11 11 11 10 11 11 10 10 9 8 9 11 12 12 12 12 13 13 12 11 11 14 18 22 22 23 23 23 23 21 18 12 9 8 8 8 7 8 9 9 8 7 6 6 6 6 6 6 7
12 13 13 13 13 12 12 13 13 14 13 13 12 11 11 11 10 10 10 11 11 12 12 11 11 11 11 11 11 10 10 11 12 13 13 12 12 12 12 12 11 13 16 21 22 23 23 24 23 21 17 11 10 9 8 7 7 7 7 7 6 5 4 4 4 5 5 6 8
12 13 13 13 13 13 13 13 13 13 13 13 11 10 10 10 9 9 9 10 10 11 12 11 11 11 11 11 11 11 10 10 11 12 12 12 12 13 13 13 12 12 15 20 22 23 23 24 23 21 17 13 11 9 8 8 8 8 7 7 6 5 4 3 3 4 4 6 9
12 13 13 14 13 13 13 13 13 12 12 12 12 12 11 10 9 9 9 9 9 10 11 11 11 11 11 12 12 11 11 10 10 10 11 11 12 13 14 12 12 12 14 19 22 23 23 23 23 21 17 12 10 9 8 8 8 8 7 6 6 5 4 3 3 3 3 4 7
11 12 13 13 13 13 13 13 12 12 12 12 12 11 10 10 9 9 8 8 8 9 9 10 11 12 12 12 11 11 11 10 9 9 10 11 11 12 13 11 11 12 13 18 21 23 23 23 22 20 17 11 9 8 8 8 9 9 8 7 7 6 5 4 3 3 3 2 3
Wind_Direction
180 178 177 176 178 179 180 180 176 174 174 175 174 173 174 175 175 175 176 176 178 179 179 179 179 178 174 169 171 174 175 173 172 172 172 170 167 164 161 160 158 155 152 149 146 142 137 133 128 125 123 121 118 113 109 110 120 120 118 116 120 120 119 118 119 117 113 107 105
181 179 176 175 177 177 176 176 174 173 175 178 175 174 174 175 174 174 175 178 179 178 176 175 176 174 171 169 171 172 172 171 171 171 171 170 167 164 162 162 161 159 156 152 150 147 143 138 133 130 128 124 121 117 116 117 122 120 118 118 121 120 117 115 117 116 113 110 108
181 178 176 176 176 176 175 175 174 174 175 177 176 174 174 176 174 174 176 179 177 174 172 173 174 173 170 167 170 171 172 171 170 170 171 170 167 165 164 163 163 161 159 156 154 152 148 145 141 139 138 137 133 131 131 134 127 122 121 124 124 119 116 116 117 114 110 105 102
180 178 177 178 179 178 178 176 175 174 174 174 172 173 175 176 174 173 173 173 170 172 174 173 172 171 169 166 168 170 172 171 170 170 170 169 168 167 166 164 163 163 162 160 156 153 150 148 144 143 143 143 142 141 141 142 131 123 120 124 120 118 117 118 117 113 108 103 96
181 181 180 181 181 181 180 177 175 174 174 171 169 172 175 176 172 169 167 169 173 176 176 171 169 168 167 165 166 168 169 170 171 171 170 168 169 168 167 165 166 166 164 162 158 155 152 148 143 142 145 148 148 148 145 140 130 121 114 110 110 115 118 120 117 112 107 101 92
183 183 182 182 182 181 180 178 176 174 172 169 169 172 174 175 173 171 171 174 176 175 171 167 166 165 163 162 165 167 168 170 172 172 170 168 168 167 167 168 168 167 165 163 160 156 153 149 143 141 143 143 140 139 139 138 131 124 117 111 111 113 116 121 121 115 109 105 100
182 182 182 182 182 181 180 178 175 173 171 170 172 174 176 176 175 174 175 174 171 168 167 167 167 165 163 163 166 168 170 171 173 172 170 168 168 168 169 170 168 167 165 163 160 158 156 150 145 144 144 141 135 137 140 141 135 130 126 126 123 118 119 126 125 120 116 114 112
184 183 182 181 181 180 179 175 173 172 172 174 177 178 177 176 175 174 172 169 168 168 169 169 169 167 166 165 167 169 170 171 172 172 171 169 168 169 169 168 168 168 168 165 163 161 160 154 149 149 149 146 144 147 150 146 139 135 133 133 129 123 122 128 128 127 125 122 119
184 184 182 180 180 180 178 175 173 174 176 178 180 180 178 176 174 173 171 170 171 170 169 170 170 168 167 167 168 170 171 171 172 172 172 170 169 169 169 168 169 170 170 168 165 163 161 156 153 153 154 152 152 154 155 149 142 139 138 136 134 129 124 124 130 131 130 127 125
183 182 181 179 180 180 178 175 176 177 178 180 181 180 179 177 175 174 174 172 169 168 169 171 170 168 168 169 170 171 172 172 172 172 171 171 171 170 170 171 171 171 171 171 168 165 161 157 154 154 154 152 152 154 155 153 146 144 143 142 139 137 135 134 136 136 134 130 129
181 180 179 179 180 179 177 175 178 180 180 181 180 180 179 178 177 177 174 168 166 169 172 172 169 169 170 172 173 173 173 172 172 172 172 173 173 173 173 173 172 172 171 171 170 167 165 161 156 154 154 151 151 154 157 157 150 147 146 146 143 143 143 146 145 142 138 133 130
181 180 179 179 178 177 176 176 179 181 182 181 180 179 180 179 179 176 172 166 169 173 174 172 171 171 172 174 175 174 173 172 172 172 172 174 174 174 174 174 173 172 171 171 170 170 168 166 160 157 156 154 155 159 161 160 154 151 149 150 149 149 150 153 152 148 141 135 131
180 179 179 178 176 175 176 177 178 180 181 181 179 180 180 180 178 175 172 170 173 174 174 173 173 174 174 175 174 174 174 174 173 173 173 174 174 174 174 174 173 173 172 172 172 172 171 168 164 161 160 160 162 165 166 164 159 156 155 156 157 157 157 158 156 150 142 136 135
180 179 178 177 175 175 176 178 178 180 181 180 179 179 179 179 177 175 174 174 174 174 172 173 175 176 177 175 174 174 174 174 174 174 174 175 174 174 174 175 174 173 173 173 175 175 174 171 169 166 164 164 166 168 169 169 165 163 161 162 163 163 162 160 157 152 146 142 140
180 180 179 176 175 176 177 178 179 180 180 180 180 179 178 177 177 177 177 176 175 173 171 172 175 178 178 176 175 174 174 173 173 174 174 175 175 175 175 175 175 175 174 175 177 178 177 174 172 170 168 167 167 168 170 172 170 168 167 167 166 165 163 161 159 156 153 149 146
181 180 179 176 177 178 179 179 180 180 181 181 180 179 178 177 177 177 177 176 175 173 173 174 175 176 176 176 175 174 174 173 174 174 175 175 176 177 177 176 176 176 176 175 178 180 180 177 174 172 170 169 168 169 171 173 172 170 169 169 166 164 162 162 162 161 158 154 151
181 180 179 178 179 180 181 181 181 181 181 181 179 179 178 177 176 177 178 177 175 174 175 176 175 174 173 174 174 174 174 174 176 176 177 177 177 178 179 178 178 178 177 176 178 180 180 178 175 173 171 169 168 169 170 171 170 169 168 167 164 163 162 163 164 163 160 156 155
182 181 180 180 181 182 182 182 182 182 181 181 179 179 179 176 176 177 178 177 176 175 175 176 175 173 172 172 173 174 175 175 178 179 180 178 178 178 179 179 179 178 178 177 178 178 178 175 173 171 169 167 167 167 168 168 167 166 164 162 162 162 163 165 165 163 161 158 157
182 182 182 183 184 184 183 183 182 181 181 180 179 179 178 177 176 176 177 178 177 176 174 174 174 174 173 173 174 175 176 176 179 180 181 178 178 178 179 179 178 177 177 178 178 177 175 171 168 167 165 164 163 163 164 165 163 162 161 160 161 162 163 165 165 164 161 158 155
183 183 184 185 185 185 184 184 183 181 179 178 178 178 178 177 176 176 176 178 178 176 174 173 174 174 174 174 175 176 178 178 179 180 180 177 177 178 178 177 175 175 176 177 176 174 171 168 166 164 163 161 160 160 161 161 160 160 160 160 161 162 164 165 164 162 158 154 153
185 185 185 185 185 185 184 184 182 180 178 177 177 177 177 175 175 176 177 176 175 174 174 174 174 174 174 174 176 178 179 178 179 180 178 175 176 177 177 174 173 173 173 174 172 170 168 166 165 163 162 160 160 160 160 159 158 158 158 159 159 160 161 161 161 159 156 153 154
187 186 186 185 185 184 184 182 181 179 177 176 176 176 175 174 175 176 175 173 172 173 174 176 176 175 175 175 177 178 178 177 178 178 178 175 176 175 174 171 170 170 171 172 171 169 167 165 164 163 162 161 161 161 161 160 158 157 155 154 153 154 155 157 158 157 156 155 156
186 186 185 185 184 183 182 180 179 177 176 176 175 174 174 173 174 173 171 170 171 173 175 177 177 177 176 176 176 175 175 173 175 176 175 173 171 171 169 168 169 170 172 173 171 168 165 164 164 163 163 162 162 162 162 161 159 157 155 152 150 149 151 153 153 154 154 154 156
184 183 183 183 183 182 180 178 177 176 175 175 174 173 173 172 170 169 168 169 172 174 176 177 177 177 176 175 175 174 172 170 171 172 172 170 168 167 167 168 171 173 175 175 173 170 168 165 165 165 165 164 164 164 164 163 161 159 156 153 151 150 150 149 149 149 151 153 155
182 181 181 180 180 179 178 177 177 176 176 174 173 171 170 169 168 168 168 170 172 174 174 175 174 174 174 174 174 173 172 170 169 168 168 167 166 167 167 170 173 175 177 176 176 174 172 169 167 166 165 164 163 163 163 164 163 161 159 157 155 153 151 149 149 149 150 152 154
180 179 179 179 178 177 177 177 177 176 174 172 170 169 169 168 167 167 168 170 172 173 172 171 170 170 171 171 172 173 173 173 170 169 167 166 166 167 170 173 175 176 177 179 178 177 176 173 170 167 164 162 161 161 163 165 165 163 161 159 158 156 155 156 157 157 155 153 153
178 178 178 176 175 176 177 177 175 174 171 169 168 169 168 167 167 167 168 170 170 170 169 168 167 168 169 168 169 172 174 175 173 171 169 167 167 169 172 175 176 177 179 181 180 179 178 176 173 169 165 161 162 163 164 165 164 163 161 162 161 161 160 160 161 160 158 155 152
177 177 175 173 174 176 176 174 172 171 170 169 168 168 166 165 166 167 168 168 166 165 164 165 165 165 164 165 170 172 173 172 171 171 170 169 169 171 173 175 176 178 180 181 180 180 179 178 175 171 167 163 162 162 162 161 162 163 163 164 165 164 163 162 161 160 158 157 155
175 174 172 172 174 175 174 172 172 171 169 168 166 164 163 164 165 166 166 164 162 162 163 164 161 160 161 167 171 171 170 169 168 168 168 169 172 174 175 175 175 178 180 181 180 180 180 179 176 172 169 165 162 161 161 161 161 163 164 166 167 166 165 162 160 160 159 157 155
172 171 171 173 173 173 173 173 172 170 167 164 162 161 161 163 163 164 164 163 164 165 164 160 158 160 164 167 167 167 167 168 165 164 165 168 172 175 177 175 175 177 180 181 180 180 180 179 176 173 170 166 161 158 158 160 161 162 164 165 166 165 163 160 159 159 159 157 155
171 171 171 172 172 172 172 172 169 165 162 160 160 160 161 162 164 164 165 164 165 162 157 153 157 161 163 163 162 163 165 164 163 164 167 169 172 174 174 173 173 176 179 181 180 179 179 178 176 173 170 166 161 158 158 159 161 162 163 164 164 163 161 159 159 160 159 158 157
170 170 170 171 171 170 169 166 163 161 159 158 160 161 162 163 164 165 163 162 158 153 151 153 157 158 158 157 160 161 162 161 163 166 168 170 170 169 168 167 170 176 179 180 179 178 178 176 174 171 168 165 160 156 155 157 158 159 160 160 161 162 161 160 160 161 161 161 161
167 168 168 169 168 166 164 161 160 158 157 158 160 161 161 162 160 158 157 156 154 153 155 157 158 158 157 159 159 160 160 161 163 164 165 164 162 161 160 163 168 176 179 179 178 177 176 174 172 169 166 162 156 151 151 152 153 153 154 156 159 160 160 159 161 162 164 164 163
165 165 166 166 164 161 159 157 156 156 156 157 158 159 158 156 154 154 154 154 155 155 156 157 157 157 157 158 157 157 158 158 158 157 156 155 154 154 157 162 168 176 178 178 176 175 174 172 169 166 162 157 150 145 146 147 146 147 149 152 155 158 159 159 160 162 163 163 162
162 162 162 161 158 156 154 153 152 153 153 154 155 155 154 153 153 153 153 151 149 148 147 146 145 145 145 147 149 150 151 150 150 150 150 149 150 152 156 160 166 174 176 176 174 173 171 169 166 162 157 149 143 142 144 144 144 146 147 149 151 153 155 156 158 159 160 160 158
160 159 157 155 153 151 150 150 149 150 150 151 151 151 151 150 150 148 146 142 139 138 137 135 133 133 134 138 141 145 147 148 147 147 148 149 150 152 155 158 165 173 175 174 173 171 169 167 162 157 150 141 139 141 144 144 143 144 145 146 148 150 151 151 152 154 155 156 156
156 154 151 147 146 146 146 146 146 147 148 149 148 147 146 144 142 141 140 138 136 136 136 136 137 138 141 142 143 144 145 145 145 146 148 150 152 153 154 157 165 172 175 173 171 169 167 163 157 151 145 137 139 141 142 141 140 141 141 142 143 143 142 141 144 147 150 155 158
149 145 142 141 141 141 142 143 144 145 146 145 144 143 141 139 138 139 140 140 138 138 139 139 141 143 143 141 139 138 139 142 145 147 149 152 154 154 154 157 165 171 173 172 169 167 163 159 154 148 144 139 142 143 142 140 139 140 139 137 133 128 122 121 130 139 148 157 162
138 137 136 136 137 138 140 142 143 143 142 140 138 136 135 135 137 139 141 141 139 139 139 140 141 140 138 135 133 133 136 142 146 148 151 154 155 156 156 157 164 169 170 168 166 163 159 155 151 147 144 142 143 144 142 140 139 138 136 133 128 120 111 105 115 130 145 158 167
130 132 133 135 137 138 140 141 141 140 138 137 136 136 136 136 136 136 136 135 135 135 136 136 136 136 134 133 133 134 137 141 145 148 150 152 154 155 155 155 159 162 163 162 160 157 154 151 149 147 145 142 143 142 141 138 137 136 136 135 133 129 119 106 107 117 133 152 167
126 129 132 135 137 138 138 138 137 136 136 135 136 137 136 134 132 131 130 129 130 129 129 129 131 132 132 133 133 134 136 137 140 143 145 147 150 152 153 151 152 152 153 153 153 152 150 149 148 147 146 142 142 141 139 138 137 139 141 142 141 137 132 123 110 108 117 132 156